Effective Sunday, March 17, 2024, the National Weather Service National Data Buoy Center will discontinue its Dial-A-Buoy Interactive Voice Response system. For more information, see Service Change Notice 24-06 (PDF).

Station CHBV2 - 8638901 - Chesapeake Bay Bridge Tunnel, VA Image indicating link to RSS feed of recent meteorological observations for station CHBV2


Conditions at CHBV2 as of
(2:48 pm EST)
1948 GMT on 02/26/2024:
     

Click on the graph icon in the table below to see a time series plot of the last five days of that observation.

5-day plot - Wind Direction Wind Direction (WDIR):WSW ( 250 deg true )
5-day plot - Wind Speed Wind Speed (WSPD): 8.0 kts
5-day plot - Wind Gust Wind Gust (GST): 8.9 kts
5-day plot - Atmospheric Pressure Atmospheric Pressure (PRES):29.97 in
5-day plot - Air Temperature Air Temperature (ATMP): 56.8 °F
5-day plot - Wind Speed at 10 Meters Wind Speed at 10 meters (WSPD10M): 7.8 kts
5-day plot - Wind Speed at 20 Meters Wind Speed at 20 meters (WSPD20M): 9.7 kts
5-day plot -  Wind Speed, Wind Gust and Atmospheric Pressure Combined plot of Wind Speed, Gust, and Air Pressure
NOS Water Level Observation Network Water Level
Previous observations
TIME
(EST)
5-day plot - Wind Direction
WDIR
 
5-day plot - Wind Speed
WSPD
kts
5-day plot - Wind Gust
GST
kts
5-day plot - Wave Height
WVHT
ft
5-day plot - Dominant Wave Period
DPD
sec
5-day plot - Average Wave Period
APD
sec
5-day plot - Mean Wave Direction
MWD
 
5-day plot - Atmospheric Pressure
PRES
in
5-day plot - Pressure Tendency
PTDY
in
5-day plot - Air Temperature
ATMP
°F
5-day plot - Water Temperature
WTMP
°F
5-day plot - Dew Point
DEWP
°F
5-day plot - Salinity
SAL
psu
5-day plot - Visibility
VIS
nmi
5-day plot - Tide (above MLLW)
TIDE
ft
2024-02-26 02:42 pm W 8.9 11.1----29.97- 56.3-----
2024-02-26 02:36 pm W 9.9 11.1----29.97- 56.5-----
2024-02-26 02:30 pm W 9.9 11.1----29.97- 55.6-----
2024-02-26 02:24 pm W 11.1 12.0----29.98- 56.7-----
2024-02-26 02:18 pmWSW 11.1 13.0----29.98- 57.4-----
2024-02-26 02:12 pm W 11.1 12.0----29.98- 55.4-----
2024-02-26 02:06 pm W 9.9 11.1----29.98- 54.5-----
2024-02-26 02:00 pm W 8.9 11.1----29.98-0.06 54.3-----
2024-02-26 01:54 pm W 2.9 5.1----29.98- 54.0-----
2024-02-26 01:48 pm SW 5.1 8.0----29.98- 54.9-----
2024-02-26 01:42 pmWSW 7.0 9.9----29.99- 54.5-----
2024-02-26 01:36 pmSSW 1.9 5.1----29.99- 54.3-----
2024-02-26 01:30 pmWSW 2.9 5.1----29.99- 54.0-----
2024-02-26 01:24 pmWSW 1.9 6.0----30.00- 54.9-----
2024-02-26 01:18 pm SW 4.1 8.0----30.00- 55.2-----
2024-02-26 01:12 pm SW 5.1 7.0----30.00- 55.2-----
2024-02-26 01:06 pm SW 4.1 6.0----30.00- 54.7-----
2024-02-26 01:00 pm SW 4.1 8.0----30.01-0.05 54.0-----
2024-02-26 12:54 pmWSW 8.0 8.0----30.01- 53.2-----
2024-02-26 12:48 pmWSW 6.0 7.0----30.01- 52.5-----
2024-02-26 12:42 pmWSW 5.1 8.0----30.01- 52.7-----
2024-02-26 12:36 pmWSW 5.1 8.0----30.02- 53.1-----
2024-02-26 12:30 pmWSW 7.0 8.0----30.02- 52.7-----
2024-02-26 12:24 pmWSW 6.0 7.0----30.02- 53.2-----
2024-02-26 12:18 pmWSW 5.1 7.0----30.03- 52.7-----
2024-02-26 12:12 pmWSW 6.0 8.9----30.03- 52.3-----
2024-02-26 12:06 pmWSW 7.0 8.0----30.03- 51.6-----
2024-02-26 12:00 pmWSW 7.0 8.9----30.03-0.04 51.8-----
2024-02-26 11:54 amWSW 8.9 11.1----30.03- 52.5-----
2024-02-26 11:48 amWSW 9.9 11.1----30.04- 52.3-----
2024-02-26 11:42 amWSW 8.9 8.9----30.04- 52.0-----
2024-02-26 11:36 amWSW 8.0 8.0----30.04- 52.0-----
2024-02-26 11:30 amWSW 6.0 7.0----30.04- 52.2-----
2024-02-26 11:24 am SW 4.1 6.0----30.04- 52.5-----
2024-02-26 11:18 am SW 5.1 8.0----30.05- 52.2-----
2024-02-26 11:12 am SW 6.0 9.9----30.05- 51.8-----
2024-02-26 11:06 am SW 8.0 12.0----30.05- 51.8-----
2024-02-26 11:00 am SW 8.9 12.0----30.05-0.03 51.6-----
2024-02-26 10:54 am SW 9.9 13.0----30.04- 51.3-----
2024-02-26 10:48 am SW 8.9 12.0----30.04- 50.9-----
2024-02-26 10:42 am SW 9.9 13.0----30.04- 50.9-----
2024-02-26 10:36 am SW 11.1 13.0----30.04- 50.9-----
2024-02-26 10:30 am SW 9.9 14.0----30.05- 50.7-----
2024-02-26 10:24 am SW 9.9 14.0----30.05- 50.4-----
2024-02-26 10:18 am SW 12.0 15.0----30.05- 50.2-----
2024-02-26 10:12 am SW 13.0 15.0----30.06- 50.2-----
2024-02-26 10:06 am SW 11.1 13.0----30.06- 50.0-----
2024-02-26 10:00 am SW 9.9 14.0----30.06+0.00 49.8-----
2024-02-26 09:54 am SW 11.1 14.0----30.06- 49.5-----
2024-02-26 09:48 am SW 11.1 14.0----30.06- 49.3-----
2024-02-26 09:42 am SW 11.1 15.0----30.06- 48.9-----
2024-02-26 09:36 am SW 9.9 13.0----30.06- 48.4-----
2024-02-26 09:30 am SW 11.1 14.0----30.06- 48.0-----
2024-02-26 09:24 am SW 12.0 15.0----30.06- 47.7-----
2024-02-26 09:18 am SW 9.9 13.0----30.06- 47.1-----
2024-02-26 09:12 am SW 11.1 13.0----30.07- 46.8-----
2024-02-26 09:06 amSSW 9.9 13.0----30.07- 46.4-----
2024-02-26 09:00 amSSW 11.1 13.0----30.07+0.00 46.0-----
2024-02-26 08:54 amSSW 11.1 14.0----30.07- 45.7-----
2024-02-26 08:48 amSSW 11.1 13.0----30.07- 45.3-----
2024-02-26 08:42 amSSW 11.1 13.0----30.07- 45.1-----
2024-02-26 08:36 amSSW 12.0 14.0----30.07- 45.1-----
2024-02-26 08:30 amSSW 12.0 14.0----30.07- 45.0-----
2024-02-26 08:24 amSSW 11.1 14.0----30.07- 44.8-----
2024-02-26 08:18 amSSW 11.1 14.0----30.08- 44.8-----
2024-02-26 08:12 amSSW 12.0 15.0----30.08- 44.8-----
2024-02-26 08:06 amSSW 11.1 14.0----30.08- 44.4-----
2024-02-26 08:00 amSSW 12.0 15.0----30.07+0.00 44.2-----
2024-02-26 07:54 amSSW 12.0 14.0----30.07- 44.2-----
2024-02-26 07:48 amSSW 12.0 14.0----30.07- 44.1-----
2024-02-26 07:42 amSSW 12.0 14.0----30.07- 43.9-----
2024-02-26 07:36 amSSW 13.0 15.0----30.07- 43.9-----
2024-02-26 07:30 amSSW 12.0 14.0----30.07- 43.7-----
2024-02-26 07:24 amSSW 12.0 15.0----30.07- 43.5-----
2024-02-26 07:18 amSSW 12.0 15.0----30.07- 43.3-----
2024-02-26 07:12 amSSW 12.0 14.0----30.07- 43.2-----
2024-02-26 07:06 amSSW 11.1 13.0----30.06- 42.8-----
2024-02-26 07:00 amSSW 11.1 14.0----30.06-0.01 42.8-----
2024-02-26 06:54 amSSW 12.0 15.9----30.06- 42.8-----
2024-02-26 06:48 amSSW 12.0 15.0----30.07- 42.8-----
2024-02-26 06:42 amSSW 12.0 14.0----30.07- 42.8-----
2024-02-26 06:36 amSSW 12.0 14.0----30.07- 42.8-----
2024-02-26 06:30 amSSW 11.1 13.0----30.07- 42.6-----
2024-02-26 06:24 amSSW 11.1 13.0----30.07- 42.6-----
2024-02-26 06:18 amSSW 8.9 12.0----30.07- 42.4-----
2024-02-26 06:12 amSSW 9.9 12.0----30.07- 42.3-----
2024-02-26 06:06 amSSW 9.9 14.0----30.07- 42.3-----
2024-02-26 06:00 amSSW 11.1 13.0----30.07-0.02 42.4-----
2024-02-26 05:54 amSSW 11.1 14.0----30.07- 42.3-----
2024-02-26 05:48 amSSW 12.0 14.0----30.07- 42.1-----
2024-02-26 05:42 amSSW 11.1 13.0----30.07- 42.3-----
2024-02-26 05:36 amSSW 11.1 14.0----30.07- 42.1-----
2024-02-26 05:30 amSSW 11.1 13.0----30.07- 41.9-----
2024-02-26 05:24 amSSW 9.9 15.0----30.07- 41.7-----
2024-02-26 05:18 am SW 9.9 14.0----30.07- 41.7-----
2024-02-26 05:12 am SW 8.9 14.0----30.08- 41.5-----
2024-02-26 05:06 am SW 9.9 13.0----30.08- 41.4-----
2024-02-26 05:00 am SW 11.1 13.0----30.08-0.02 41.2-----
2024-02-26 04:54 amSSW 12.0 17.1----30.08- 41.2-----
2024-02-26 04:48 amSSW 14.0 19.0----30.07- 41.4-----
2024-02-26 04:42 amSSW 15.0 18.1----30.07- 41.5-----
2024-02-26 04:36 amSSW 15.9 19.0----30.07- 41.5-----
2024-02-26 04:30 amSSW 15.9 18.1----30.07- 41.4-----
2024-02-26 04:24 amSSW 14.0 18.1----30.07- 41.4-----
2024-02-26 04:18 amSSW 12.0 17.1----30.08- 41.5-----
2024-02-26 04:12 amSSW 13.0 17.1----30.07- 41.4-----
2024-02-26 04:06 amSSW 15.9 18.1----30.07- 41.4-----
2024-02-26 04:00 amSSW 13.0 15.9----30.07-0.03 41.2-----
2024-02-26 03:54 amSSW 12.0 15.9----30.08- 41.0-----
2024-02-26 03:48 amSSW 13.0 17.1----30.08- 40.6-----
2024-02-26 03:42 am SW 15.0 18.1----30.08- 40.5-----
2024-02-26 03:36 am SW 15.0 18.1----30.08- 40.5-----
2024-02-26 03:30 amSSW 15.0 18.1----30.09- 40.5-----
2024-02-26 03:24 amSSW 15.0 17.1----30.09- 40.5-----
2024-02-26 03:18 amSSW 12.0 17.1----30.09- 40.5-----
2024-02-26 03:12 amSSW 14.0 17.1----30.09- 40.5-----
2024-02-26 03:06 amSSW 13.0 15.9----30.09- 40.5-----
2024-02-26 03:00 amSSW 13.0 15.9----30.09-0.03 40.3-----
2024-02-26 02:54 amSSW 13.0 17.1----30.09- 40.5-----
2024-02-26 02:48 amSSW 13.0 15.9----30.09- 40.6-----
2024-02-26 02:42 amSSW 11.1 18.1----30.09- 40.6-----
2024-02-26 02:36 amSSW 13.0 15.0----30.10- 40.8-----
2024-02-26 02:30 amSSW 11.1 15.9----30.10- 40.8-----
2024-02-26 02:24 amSSW 12.0 15.0----30.10- 40.8-----
2024-02-26 02:18 amSSW 14.0 15.0----30.10- 40.6-----
2024-02-26 02:12 amSSW 13.0 17.1----30.10- 40.6-----
2024-02-26 02:06 amSSW 14.0 15.9----30.10- 40.5-----
2024-02-26 02:00 amSSW 13.0 15.0----30.10-0.02 40.3-----
2024-02-26 01:54 amSSW 14.0 17.1----30.10- 40.1-----
2024-02-26 01:48 amSSW 14.0 18.1----30.10- 40.3-----
2024-02-26 01:42 amSSW 15.0 18.1----30.10- 40.3-----
2024-02-26 01:36 amSSW 15.0 18.1----30.10- 40.3-----
2024-02-26 01:30 amSSW 15.0 17.1----30.10- 40.1-----
2024-02-26 01:24 amSSW 15.9 18.1----30.10- 40.1-----
2024-02-26 01:18 amSSW 15.9 18.1----30.10- 40.1-----
2024-02-26 01:12 amSSW 15.9 18.1----30.10- 39.9-----
2024-02-26 01:06 amSSW 14.0 17.1----30.10- 39.9-----
2024-02-26 01:00 amSSW 13.0 15.9----30.11-0.02 40.1-----
2024-02-26 12:54 amSSW 13.0 18.1----30.11- 40.3-----
2024-02-26 12:48 am S 15.0 17.1----30.11- 40.6-----
2024-02-26 12:42 amSSW 12.0 14.0----30.11- 40.6-----
2024-02-26 12:36 am S 12.0 15.0----30.11- 40.8-----
2024-02-26 12:30 am S 13.0 15.9----30.11- 40.6-----
2024-02-26 12:24 am S 14.0 17.1----30.11- 40.6-----
2024-02-26 12:18 am S 14.0 17.1----30.11- 40.6-----
2024-02-26 12:12 am S 13.0 15.9----30.11- 40.6-----
2024-02-26 12:06 am S 14.0 15.9----30.11- 40.6-----
2024-02-26 12:00 am S 14.0 15.9----30.12-0.02 40.6-----
2024-02-25 11:54 pm S 14.0 15.9----30.12- 40.6-----
2024-02-25 11:48 pm S 14.0 15.9----30.12- 40.6-----
2024-02-25 11:42 pm S 12.0 15.0----30.12- 40.5-----
2024-02-25 11:36 pm S 14.0 15.9----30.12- 40.3-----
2024-02-25 11:30 pm S 13.0 15.9----30.12- 40.5-----
2024-02-25 11:24 pm S 13.0 15.0----30.12- 40.6-----
2024-02-25 11:18 pm S 12.0 15.9----30.12- 40.8-----
2024-02-25 11:12 pm S 13.0 15.0----30.12- 40.6-----
2024-02-25 11:06 pm S 12.0 15.0----30.12- 40.8-----
2024-02-25 11:00 pm S 13.0 15.0----30.12-0.01 40.6-----
2024-02-25 10:54 pm S 13.0 15.0----30.11- 40.6-----
2024-02-25 10:48 pm S 12.0 14.0----30.12- 40.8-----
2024-02-25 10:42 pm S 11.1 15.0----30.12- 40.6-----
2024-02-25 10:36 pm S 12.0 14.0----30.12- 40.5-----
2024-02-25 10:30 pm S 9.9 14.0----30.12- 40.5-----
2024-02-25 10:24 pm S 12.0 14.0----30.13- 40.3-----
2024-02-25 10:18 pm S 11.1 13.0----30.13- 40.3-----
2024-02-25 10:12 pm S 12.0 14.0----30.13- 40.5-----
2024-02-25 10:06 pm S 12.0 14.0----30.13- 40.3-----
2024-02-25 10:00 pm S 12.0 14.0----30.13- 40.3-----
2024-02-25 09:54 pm S 12.0 13.0----30.13- 40.3-----
2024-02-25 09:48 pm S 9.9 13.0----30.13- 40.1-----
2024-02-25 09:42 pm S 11.1 12.0----30.13- 40.1-----
2024-02-25 09:36 pm S 11.1 13.0----30.14- 40.1-----
2024-02-25 09:30 pm S 9.9 13.0----30.14- 40.1-----
2024-02-25 09:24 pm S 11.1 13.0----30.14- 39.9-----
2024-02-25 09:18 pm S 12.0 13.0----30.14- 40.1-----
2024-02-25 09:12 pm S 12.0 14.0----30.14- 40.1-----
2024-02-25 09:06 pm S 9.9 13.0----30.14- 40.1-----
2024-02-25 09:00 pm S 12.0 13.0----30.14+0.04 40.1-----
2024-02-25 08:54 pm S 9.9 12.0----30.14- 40.1-----
2024-02-25 08:48 pm S 11.1 12.0----30.14- 40.1-----
2024-02-25 08:42 pm S 9.9 13.0----30.14- 40.3-----
2024-02-25 08:36 pm S 12.0 14.0----30.14- 40.3-----
2024-02-25 08:30 pm S 12.0 13.0----30.14- 40.5-----
2024-02-25 08:24 pm S 8.9 12.0----30.13- 40.6-----
2024-02-25 08:18 pmSSE 8.9 11.1----30.13- 40.6-----
2024-02-25 08:12 pmSSE 8.0 11.1----30.13- 40.5-----
2024-02-25 08:06 pmSSE 8.9 11.1----30.13- 40.5-----
2024-02-25 08:00 pmSSE 8.9 11.1----30.13+0.03------
2024-02-25 07:54 pmSSE 8.0 11.1----30.13-------
2024-02-25 07:48 pmSSE 8.9 9.9----30.13- 40.3-----
2024-02-25 07:42 pmSSE 8.9 11.1----30.13- 40.3-----
2024-02-25 07:36 pmSSE 8.0 8.9----30.13- 40.5-----
2024-02-25 07:30 pmSSE 8.0 11.1----30.13- 40.5-----
2024-02-25 07:24 pmSSE 8.9 9.9----30.12- 40.3-----
2024-02-25 07:18 pm SE 8.0 11.1----30.12-------
2024-02-25 07:12 pmSSE 8.9 11.1----30.12-------
2024-02-25 07:06 pmSSE 8.9 9.9----30.12-------
2024-02-25 07:00 pm SE 7.0 8.9------------
2024-02-25 06:54 pm SE 8.9 9.9------------
2024-02-25 06:48 pmSSE 8.9 11.1----30.12- 40.1-----
2024-02-25 06:42 pmSSE 8.9 9.9----30.11- 39.9-----
2024-02-25 06:36 pmSSE 8.0 11.1----30.12- 39.9-----
2024-02-25 06:30 pmSSE 8.9 9.9----30.11- 39.9-----
2024-02-25 06:24 pmSSE 8.9 9.9----30.11- 39.9-----
2024-02-25 06:00 pmESE 7.0 8.9----30.10- 39.9-----
2024-02-25 05:54 pmESE 6.0 8.0----30.10- 39.9-----
2024-02-25 05:48 pmESE 7.0 8.0----30.10- 40.3-----
2024-02-25 05:42 pmESE 6.0 8.0----30.10- 40.5-----
2024-02-25 05:36 pmESE 6.0 7.0----30.10- 40.8-----
2024-02-25 05:30 pmESE 5.1 7.0----30.10- 41.0-----
2024-02-25 05:24 pmESE 6.0 8.0----30.10- 40.8-----
2024-02-25 05:18 pmESE 6.0 7.0----30.10- 40.8-----
2024-02-25 05:12 pmESE 6.0 8.0----30.10- 41.0-----
2024-02-25 05:06 pm SE 6.0 8.0----30.10- 41.0-----
2024-02-25 05:00 pm SE 6.0 8.0----30.10-0.03 41.2-----
2024-02-25 04:54 pmESE 5.1 6.0----30.10- 41.9-----
2024-02-25 04:48 pmESE 5.1 6.0----30.10-------
2024-02-25 04:42 pmESE 4.1 5.1----30.10-------
2024-02-25 04:36 pmESE 2.9 4.1----30.10-------
2024-02-25 04:30 pm-------30.10-------
2024-02-25 04:24 pm-------30.10-------
2024-02-25 04:18 pm SE 4.1 5.1----30.11- 42.1-----
2024-02-25 04:12 pmSSE 2.9 2.9----30.11- 42.3-----
2024-02-25 04:06 pmESE 2.9 4.1----30.11- 42.6-----
2024-02-25 04:00 pmESE 2.9 4.1----30.11-0.05------
2024-02-25 03:54 pm E 2.9 4.1----30.11-------
2024-02-25 03:48 pm E 2.9 4.1----30.11- 42.1-----
2024-02-25 03:42 pmESE 2.9 4.1----30.11- 42.1-----
2024-02-25 03:36 pm SE 1.9 4.1----30.11- 42.1-----
2024-02-25 03:30 pmESE 1.9 4.1----30.11- 42.4-----
2024-02-25 03:24 pm SE 1.0 2.9----30.11- 42.3-----
2024-02-25 03:18 pmESE 2.9 4.1----30.11-------
2024-02-25 03:12 pm E 1.9 4.1----30.12-------
2024-02-25 03:06 pm NE 1.9 1.9----30.12-------
2024-02-25 03:00 pm- 0.0 1.9------------
2024-02-25 02:54 pmNNE 1.9 4.1------------